{"data":{"norad_id":85237,"intl_designator":"","name":"UNKNOWN","alt_names":[],"object_type":"UNKNOWN","status":"UNKNOWN","operator":null,"country":null,"launch_date":null,"launch_site_code":null,"launch_vehicle":null,"mission":null,"orbit_class":"UNKNOWN","rcs_meters":null,"size_class":null,"mass_kg":null,"dimensions":null,"purposes":[],"wikipedia_slug":null,"has_3d_model":false,"image_url":null,"decayed_at":null,"tle_current":{"epoch":"2026-09-02T23:33:27.208224Z","epoch_age_seconds":1531756,"freshness":"OLD","line1":"1 85237U          26245.98156491  .00002026  00000+0  40258-3 0  9998","line2":"2 85237  65.5305 239.5600 0520060 268.5608  85.5863 14.03468329645408","mean_motion":14.03468329,"eccentricity":0.052006,"inclination_deg":65.5305,"raan_deg":239.56,"arg_perigee_deg":268.5608,"mean_anomaly_deg":85.5863,"bstar":0.00040258,"rev_number":64540,"period_min":102.60295656447,"perigee_km":504.24887902534,"apogee_km":1259.3704515766,"semimajor_km":7259.946665301,"source":"CELESTRAK","updated_at":"2026-09-20T09:00:32.447805Z"}}}